Location: *
(46.3500°N, 10.9000°E)
Time: 22:47:42
(UTC+00:00)

A-11 Canister half - Pass Details

Date: 25 April 2021
Orbit: 1526 x 1682 km, 47.3° (Epoch: 13 May)

Event Time Altitude Azimuth Distance (km) Brightness Sun altitude
Rises 17:42:14 0° 286° (WNW) 4,915 14.8 5.0°
Reaches altitude 10° 17:45:23 10° 285° (WNW) 3,936 14.2 4.4°
Maximum altitude 17:55:32 79° 201° (SSW) 1,711 9.4 2.8°
Drops below altitude 10° 18:05:38 10° 117° (ESE) 3,920 10.5 1.1°
Sets 18:08:46 0° 116° (ESE) 4,893 10.9 0.6°
